| time (UTC) | temp C | wind direction | speed KPH | gust KPH | rain 1hr cm | rain 24hr cm | rain mn cm | humidity % | barometer mb |
| 20260506185135 | 12 | 35 | 4.8 | 6.4 | 0.00 | 0.00 | 0.00 | 75 | 1008.8 |
| 20260506183933 | 12 | 45 | 4.8 | 9.7 | 0.00 | 0.00 | 0.00 | 75 | 1008.8 |
| 20260506182733 | 12 | 29 | 8.0 | 11.3 | 0.00 | 0.00 | 0.00 | 74 | 1008.8 |
| 20260506181552 | 12 | 30 | 11.3 | 16.1 | 0.00 | 0.00 | 0.00 | 73 | 1008.8 |
| 20260506180331 | 12 | 45 | 11.3 | 17.7 | 0.00 | 0.00 | 0.00 | 72 | 1008.8 |
| 20260506175129 | 13 | 45 | 14.5 | 24.1 | 0.00 | 0.00 | 0.00 | 71 | 1008.8 |
| 20260506173948 | 13 | 38 | 8.0 | 12.9 | 0.00 | 0.00 | 0.00 | 70 | 1008.8 |
| 20260506172727 | 13 | 45 | 14.5 | 20.9 | 0.00 | 0.00 | 0.00 | 69 | 1008.8 |
| 20260506171525 | 13 | 41 | 14.5 | 20.9 | 0.00 | 0.00 | 0.00 | 68 | 1008.8 |
| 20260506170325 | 13 | 45 | 20.9 | 30.6 | 0.00 | 0.00 | 0.00 | 67 | 1008.8 |
| 20260506165123 | 13 | 45 | 12.9 | 17.7 | 0.00 | 0.00 | 0.00 | 65 | 1008.8 |
| 20260506163922 | 13 | 51 | 8.0 | 17.7 | 0.00 | 0.00 | 0.00 | 65 | 1008.8 |
| 20260506162721 | 14 | 32 | 9.7 | 17.7 | 0.00 | 0.00 | 0.00 | 64 | 1008.8 |
| 20260506161519 | 14 | 54 | 19.3 | 30.6 | 0.00 | 0.00 | 0.00 | 64 | 1008.8 |
| 20260506160318 | 15 | 45 | 14.5 | 20.9 | 0.00 | 0.00 | 0.00 | 64 | 1008.8 |
| 20260506155117 | 15 | 37 | 14.5 | 24.1 | 0.00 | 0.00 | 0.00 | 66 | 1008.8 |
| 20260506153916 | 15 | 46 | 11.3 | 16.1 | 0.00 | 0.00 | 0.00 | 66 | 1008.8 |
| 20260506152815 | 15 | 10 | 6.4 | 14.5 | 0.00 | 0.00 | 0.00 | 66 | 1008.8 |
| 20260506151613 | 15 | 27 | 9.7 | 17.7 | 0.00 | 0.00 | 0.00 | 66 | 1008.8 |
| 20260506150412 | 15 | 45 | 8.0 | 11.3 | 0.00 | 0.00 | 0.00 | 65 | 1008.8 |
| 20260506145211 | 16 | 45 | 14.5 | 17.7 | 0.00 | 0.00 | 0.00 | 64 | 1008.8 |
| 20260506144010 | 16 | 18 | 9.7 | 14.5 | 0.00 | 0.00 | 0.00 | 64 | 1008.8 |
| 20260506142810 | 17 | 19 | 6.4 | 12.9 | 0.00 | 0.00 | 0.00 | 66 | 1006.3 |
| 20260506141606 | 17 | 45 | 6.4 | 12.9 | 0.00 | 0.00 | 0.00 | 67 | 1008.8 |
| 20260506140406 | 16 | 5 | 9.7 | 17.7 | 0.00 | 0.00 | 0.00 | 68 | 1008.8 |
| 20260506135204 | 16 | 26 | 9.7 | 16.1 | 0.00 | 0.00 | 0.00 | 68 | 1008.8 |
| 20260506134003 | 16 | 30 | 9.7 | 22.5 | 0.00 | 0.00 | 0.00 | 66 | 1008.8 |
| 20260506132801 | 16 | 20 | 8.0 | 14.5 | 0.00 | 0.00 | 0.00 | 66 | 1008.8 |
| 20260506131620 | 17 | 34 | 12.9 | 20.9 | 0.00 | 0.00 | 0.00 | 64 | 1008.8 |
| 20260506130359 | 17 | 13 | 8.0 | 11.3 | 0.00 | 0.00 | 0.00 | 64 | 1008.8 |
| 20260506125158 | 17 | 0 | 11.3 | 16.1 | 0.00 | 0.00 | 0.00 | 66 | 1008.8 |
| 20260506123956 | 16 | 27 | 11.3 | 17.7 | 0.00 | 0.00 | 0.00 | 65 | 1008.8 |
| 20260506122815 | 16 | 41 | 14.5 | 24.1 | 0.00 | 0.00 | 0.00 | 66 | 1008.8 |
| 20260506121614 | 16 | 0 | 12.9 | 19.3 | 0.00 | 0.00 | 0.00 | 69 | 1008.8 |
| 20260506120353 | 16 | 17 | 11.3 | 16.1 | 0.00 | 0.00 | 0.00 | 70 | 1008.8 |
| 20260506115151 | 16 | 40 | 14.5 | 20.9 | 0.00 | 0.00 | 0.00 | 70 | 1008.8 |
| 20260506113950 | 15 | 17 | 11.3 | 20.9 | 0.00 | 0.00 | 0.00 | 74 | 1008.8 |
| 20260506112749 | 16 | 19 | 9.7 | 17.7 | 0.00 | 0.00 | 0.00 | 75 | 1008.8 |
| 20260506111547 | 15 | 12 | 8.0 | 11.3 | 0.00 | 0.00 | 0.00 | 75 | 1008.8 |
| 20260506110347 | 16 | 0 | 14.5 | 20.9 | 0.00 | 0.00 | 0.00 | 76 | 1008.8 |
| 20260506105145 | 15 | 45 | 9.7 | 17.7 | 0.00 | 0.00 | 0.00 | 76 | 1008.8 |
| 20260506103944 | 15 | 5 | 16.1 | 22.5 | 0.00 | 0.00 | 0.00 | 77 | 1008.8 |
| 20260506102743 | 15 | 0 | 11.3 | 14.5 | 0.00 | 0.00 | 0.00 | 79 | 1008.8 |
| 20260506101542 | 15 | 45 | 8.0 | 11.3 | 0.00 | 0.00 | 0.00 | 78 | 1008.8 |
| 20260506100341 | 15 | 23 | 9.7 | 14.5 | 0.00 | 0.00 | 0.00 | 80 | 1008.8 |
| 20260506095140 | 15 | 23 | 11.3 | 14.5 | 0.00 | 0.00 | 0.00 | 83 | 1008.8 |
| 20260506093939 | 15 | 344 | 12.9 | 16.1 | 0.00 | 0.00 | 0.00 | 88 | 1008.8 |
| 20260506092737 | 14 | 9 | 14.5 | 24.1 | 0.00 | 0.00 | 0.00 | 91 | 1008.0 |
| 20260506091536 | 13 | 45 | 6.4 | 8.0 | 0.00 | 0.00 | 0.00 | 95 | 1008.8 |
| 20260506090335 | 12 | 11 | 6.4 | 11.3 | 0.00 | 0.00 | 0.00 | 98 | 1008.0 |
| 20260506085134 | 12 | 0 | 6.4 | 14.5 | 0.00 | 0.00 | 0.00 | 99 | 1008.8 |
| 20260506083933 | 12 | 6 | 1.6 | 4.8 | 0.00 | 0.00 | 0.00 | 100 | 1008.0 |
| 20260506082732 | 11 | 348 | 4.8 | 9.7 | 0.00 | 0.00 | 0.00 | 100 | 1008.8 |
| 20260506081530 | 11 | 15 | 4.8 | 11.3 | 0.00 | 0.00 | 0.00 | 100 | 1008.8 |
| 20260506080349 | 11 | 0 | 12.9 | 17.7 | 0.00 | 0.00 | 0.00 | 100 | 1008.8 |
| 20260506072726 | 10 | 341 | 6.4 | 12.9 | 0.00 | 0.00 | 0.00 | 100 | 1008.8 |
| 20260506071525 | 10 | 0 | 8.0 | 11.3 | 0.00 | 0.00 | 0.00 | 100 | 1008.8 |
| 20260506070324 | 10 | 348 | 8.0 | 12.9 | 0.00 | 0.00 | 0.00 | 100 | 1008.8 |
| 20260506061540 | 10 | 4 | 4.8 | 9.7 | 0.00 | 0.00 | 0.00 | 100 | 1005.5 |
| 20260506060318 | 10 | 0 | 8.0 | 12.9 | 0.00 | 0.00 | 0.00 | 99 | 1005.5 |
| 20260506050432 | 10 | 4 | 4.8 | 8.0 | 0.00 | 0.00 | 0.00 | 97 | 1005.5 |
| 20260506044029 | 10 | 6 | 8.0 | 14.5 | 0.00 | 0.00 | 0.00 | 96 | 1005.5 |
| 20260506042828 | 10 | 14 | 6.4 | 16.1 | 0.00 | 0.00 | 0.00 | 96 | 1005.5 |
| 20260506041607 | 10 | 6 | 8.0 | 11.3 | 0.00 | 0.00 | 0.00 | 95 | 1005.5 |
| 20260506040406 | 10 | 0 | 9.7 | 12.9 | 0.00 | 0.00 | 0.00 | 94 | 1005.5 |
| 20260506035205 | 10 | 0 | 8.0 | 9.7 | 0.00 | 0.00 | 0.00 | 94 | 1005.5 |
| 20260506034004 | 10 | 0 | 11.3 | 14.5 | 0.00 | 0.00 | 0.00 | 94 | 1005.5 |
| 20260506032803 | 10 | 0 | 6.4 | 9.7 | 0.00 | 0.00 | 0.00 | 94 | 1005.5 |
| 20260506031621 | 10 | 0 | 6.4 | 8.0 | 0.00 | 0.00 | 0.00 | 93 | 1005.5 |
| 20260506030400 | 10 | 34 | 4.8 | 8.0 | 0.00 | 0.00 | 0.00 | 93 | 1005.5 |
| 20260506025159 | 10 | 0 | 6.4 | 14.5 | 0.00 | 0.00 | 0.00 | 93 | 1005.5 |
| 20260506024018 | 10 | 23 | 3.2 | 6.4 | 0.00 | 0.00 | 0.00 | 93 | 1005.5 |
| 20260506022757 | 10 | 346 | 6.4 | 11.3 | 0.00 | 0.00 | 0.00 | 92 | 1006.3 |
| 20260506021556 | 10 | 0 | 9.7 | 11.3 | 0.00 | 0.00 | 0.00 | 92 | 1008.8 |
| 20260506020355 | 10 | 14 | 3.2 | 8.0 | 0.00 | 0.00 | 0.00 | 91 | 1008.8 |
| 20260506015153 | 10 | 0 | 3.2 | 8.0 | 0.00 | 0.00 | 0.00 | 91 | 1008.8 |
| 20260506013952 | 10 | 0 | 6.4 | 12.9 | 0.00 | 0.00 | 0.00 | 91 | 1008.8 |
| 20260506012752 | 10 | 0 | 6.4 | 14.5 | 0.00 | 0.00 | 0.00 | 91 | 1008.8 |
| 20260506011549 | 10 | 8 | 8.0 | 12.9 | 0.00 | 0.00 | 0.00 | 90 | 1008.8 |
| 20260506010348 | 10 | 23 | 4.8 | 8.0 | 0.00 | 0.00 | 0.00 | 90 | 1008.8 |
| 20260506005148 | 10 | 17 | 3.2 | 4.8 | 0.00 | 0.00 | 0.00 | 90 | 1008.8 |
| 20260506003947 | 10 | 13 | 6.4 | 9.7 | 0.00 | 0.00 | 0.00 | 90 | 1008.8 |
| 20260506002745 | 10 | 23 | 6.4 | 11.3 | 0.00 | 0.00 | 0.00 | 90 | 1008.8 |
| 20260506001544 | 10 | 16 | 6.4 | 8.0 | 0.00 | 0.00 | 0.00 | 90 | 1008.8 |
| 20260506000342 | 10 | 26 | 9.7 | 12.9 | 0.00 | 0.00 | 0.00 | 90 | 1008.8 |
| 20260505235142 | 10 | 12 | 4.8 | 11.3 | 0.00 | 0.00 | 0.00 | 90 | 1008.8 |
| 20260505233940 | 10 | 36 | 6.4 | 11.3 | 0.00 | 0.00 | 0.00 | 90 | 1008.8 |
| 20260505232759 | 10 | 26 | 8.0 | 12.9 | 0.00 | 0.00 | 0.00 | 90 | 1008.8 |
| 20260505231538 | 10 | 34 | 11.3 | 14.5 | 0.00 | 0.00 | 0.00 | 90 | 1008.8 |
| 20260505230337 | 10 | 23 | 9.7 | 16.1 | 0.00 | 0.00 | 0.00 | 91 | 1008.8 |
| 20260505225136 | 10 | 23 | 8.0 | 11.3 | 0.00 | 0.00 | 0.00 | 91 | 1008.8 |
| 20260505223934 | 10 | 14 | 8.0 | 14.5 | 0.00 | 0.00 | 0.00 | 92 | 1008.8 |
| 20260505222814 | 10 | 32 | 4.8 | 8.0 | 0.00 | 0.00 | 0.00 | 92 | 1008.8 |
| 20260505221532 | 10 | 23 | 4.8 | 9.7 | 0.00 | 0.00 | 0.00 | 92 | 1008.8 |
| 20260505220332 | 10 | 23 | 8.0 | 11.3 | 0.00 | 0.00 | 0.00 | 91 | 1008.8 |
| 20260505215119 | 10 | 0 | 6.4 | 11.3 | 0.00 | 0.00 | 0.00 | 91 | 1008.8 |
| 20260505213918 | 11 | 23 | 4.8 | 11.3 | 0.00 | 0.00 | 0.00 | 91 | 1008.8 |
| 20260505212736 | 11 | 23 | 8.0 | 14.5 | 0.00 | 0.00 | 0.00 | 90 | 1008.8 |
| 20260505211535 | 11 | 33 | 4.8 | 8.0 | 0.00 | 0.00 | 0.00 | 90 | 1008.8 |
| 20260505210435 | 11 | 23 | 12.9 | 22.5 | 0.00 | 0.00 | 0.00 | 90 | 1008.8 |
| 20260505205214 | 11 | 40 | 8.0 | 11.3 | 0.00 | 0.00 | 0.00 | 89 | 1008.8 |
| 20260505204012 | 11 | 23 | 6.4 | 11.3 | 0.00 | 0.00 | 0.00 | 89 | 1008.8 |
| 20260505202812 | 11 | 39 | 12.9 | 17.7 | 0.00 | 0.00 | 0.00 | 89 | 1008.8 |
| 20260505201611 | 12 | 17 | 11.3 | 12.9 | 0.00 | 0.00 | 0.00 | 89 | 1008.8 |
| 20260505200429 | 12 | 41 | 9.7 | 11.3 | 0.00 | 0.00 | 0.00 | 89 | 1008.8 |
| 20260505195209 | 12 | 40 | 11.3 | 19.3 | 0.00 | 0.00 | 0.00 | 90 | 1008.8 |
| 20260505194007 | 12 | 23 | 9.7 | 19.3 | 0.00 | 0.00 | 0.00 | 92 | 1008.8 |
| 20260505192806 | 12 | 23 | 11.3 | 17.7 | 0.00 | 0.00 | 0.00 | 93 | 1008.8 |
| 20260505191605 | 12 | 31 | 4.8 | 11.3 | 0.00 | 0.00 | 0.00 | 94 | 1008.8 |
| 20260505190424 | 12 | 31 | 4.8 | 9.7 | 0.00 | 0.00 | 0.00 | 94 | 1007.1 |